Regional Weather Roundup
Issued by NWS

Home | Current Version | Previous Version | Text Only | Print | Product List | Glossary On
Versions: 1 2 3 4 5 6 7 8 9 10 11 12 13 14 15 16 17 18 19 20 21 22 23 24 25 26 27 28 29 30 31 32 33 34 35 36 37 38 39 40 41 42 43 44 45 46 47 48 49 50
578
ASUS44 KMEG 291110
RWRTN
TENNESSEE HOURLY STATE WEATHER ROUNDUP
NATIONAL WEATHER SERVICE MEMPHIS TN
600 AM CDT WED MAR 29 2017

TNZ002-004-019-021-049-052-054-088>092-291200-
WEST TENNESSEE

CITY           SKY/WX    TMP DP  RH WIND       PRES   REMARKS
MEMPHIS INTL   PTCLDY    62  54  74 SE8       29.91S
NWS MEMPHIS      N/A     60 N/A N/A MISG        N/A
JACKSON        PTCLDY    57  55  93 E6        29.96R
DYERSBURG      CLEAR     55  53  93 E7        29.96S FOG
SOMERVILLE     MOCLDY    59  54  82 VRB5      29.92F
BOLIVAR        CLOUDY    57  54  88 E5        29.95S
PARIS          PTCLDY    52  52 100 E8        29.99S
HUNTINGDON     CLOUDY    55  54  94 E7        29.98R FOG
SAVANNAH       CLOUDY    54  54 100 CALM      29.97R
$$

TNZ008-025-027-028-033-062-065-066-291200-
NORTH MIDDLE TENNESSEE

CITY           SKY/WX    TMP DP  RH WIND       PRES   REMARKS
NASHVILLE      CLEAR     50  49  96 CALM      30.04S
PORTLAND       PTCLDY    52  52 100 E3        30.05S FOG
CLARKSVILLE    FOG       52  50  93 E8        30.03S VSB 1/2
SMYRNA         PTCLDY    47  47 100 CALM      30.05S
COOKEVILLE     CLEAR     43  43 100 NE3       30.04R FOG
GALLATIN       CLEAR     54  52  94 CALM      30.07R
CROSSVILLE     FOG       48  47  96 NE3       30.06R VSB 1/4
$$

TNZ061-075-076-078-094-096-097-291200-
SOUTH MIDDLE TENNESSEE

CITY           SKY/WX    TMP DP  RH WIND       PRES   REMARKS
FAYETTEVILLE   CLOUDY    55  52  88 NE5       30.01R
TULLAHOMA      CLEAR     46  45  93 CALM        N/A
WINCHESTER     CLEAR     46  45  93 CALM      30.02S
MCMINNVILLE    PTCLDY    48  48 100 NE3       30.04R
COLUMBIA       CLEAR    N/A N/A N/A CALM      29.99S
SHELBYVILLE    CLEAR     48  48 100 CALM      30.03S
$$

TNZ017-018-042-046-047-291200-
NORTHEAST TENNESSEE

CITY           SKY/WX    TMP DP  RH WIND       PRES   REMARKS
TRI CITIES     PTCLDY    45  44  97 CALM      30.07R
ELIZABETHTON   PTCLDY    43  43 100 CALM      30.07R FOG
$$

TNZ012-013-036-069-073-074-291200-
CENTRAL EAST TENNESSEE

CITY           SKY/WX    TMP DP  RH WIND       PRES   REMARKS
KNOXVILLE      CLEAR     52  48  86 CALM      30.03R
OAK RIDGE      CLEAR     49  46  90 CALM      30.05R
DOWNTOWN KNOXV CLEAR     50  50 100 CALM      30.05R FOG
GATLINBURG     CLEAR     45  45 100 CALM      30.04R
MORRISTOWN     PTCLDY    52  50  93 NE3       30.04R
JACKSBORO      PTCLDY    46  46 100 CALM      30.09R FOG
$$

TNZ083-085-099-291200-
SOUTHEAST TENNESSEE

CITY           SKY/WX    TMP DP  RH WIND       PRES   REMARKS
CHATTANOOGA    CLEAR     51  49  92 CALM      30.04R
$$

SKY/WX REPORTED AS FAIR MEANS FEW OR NO CLOUDS BELOW
12 THOUSAND FEET.





USA.gov is the U.S. government's official web portal to all federal, state and local government web resources and services.